Location: B�rgermoos
(47.6500°N, 9.0667°E)
Time: 00:48:29
(UTC+00:00)

Tiros 1 - Pass Details

Date: 08 August 2021
Orbit: 630 x 663 km, 48.4° (Epoch: 16 September)

Event Time Altitude Azimuth Distance (km) Brightness Sun altitude
Rises 14:16:55 0° 215° (SW) 2,983 11.2 43.3°
Reaches altitude 10° 14:19:29 10° 204° (SSW) 2,074 10.5 42.9°
Maximum altitude 14:23:37 29° 144° (SE) 1,203 8.8 42.3°
Drops below altitude 10° 14:27:44 10° 85° (E) 2,075 9.4 41.6°
Sets 14:30:19 0° 74° (ENE) 2,985 10.1 41.2°
